Location: Unspecified
(51.5147°N, 7.4673°E)
Time: 05:55:08
(UTC+01:00)

A-11 Canister half - Pass Details

Date: 20 February 2026
Orbit: 1524 x 1683 km, 47.3° (Epoch: 14 March)

Event Time Altitude Azimuth Distance (km) Brightness Sun altitude
Rises 19:24:21 0° 266° (W) 4,698 13.5 -14.7°
Reaches altitude 10° 19:27:25 10° 265° (W) 3,704 12.4 -15.1°
Maximum altitude 19:36:37 69° 185° (S) 1,617 9.1 -16.6°
Enters shadow 19:42:59 23° 108° (ESE) 2,821 9.8 -17.6°
